• Join FlightAware (Why Join?)
  • Login
  • US Flag 
12:58AM EST


 

Airport Tracker/Info


-or-


 

Live Flight TrackerFlight Track Log ✈ SWA482 ✈ 24-Apr-2013 ✈ KPHX - KABQ

Flight Track Log - Related Links

Times and Time Zones

All times are in EDT time to prevent confusion due to time zone crossing. See the SWA482 flight status page for this flight to view local times or setup timezone preferences in your user account.

Time Position Orientation Groundspeed Altitude Reporting Facility
EDT Latitude Longitude Course Direction KTS MPH feet Rate Location/Type
09:19PM 33.4333 -112.1333 270° West 229 264 4,900  Level Phoenix TRACON
09:20PM 33.4414 -112.1536 295° West 228 262 5,600 2,889 Climbing Albuquerque Center
09:21PM 33.5011 -112.1525 North 252 290 8,800 2,634 Climbing Albuquerque Center
09:22PM 33.5236 -112.0572 74° East 294 338 11,000 2,390 Climbing Albuquerque Center
09:23PM 33.5475 -111.9503 75° East 344 396 13,700 2,754 Climbing Albuquerque Center
09:24PM 33.5731 -111.8278 76° East 380 437 16,600 2,780 Climbing Albuquerque Center
09:25PM 33.5997 -111.6994 76° East 399 459 19,400 2,732 Climbing Albuquerque Center
09:26PM 33.6336 -111.5364 76° East 423 487 22,200 2,488 Climbing Albuquerque Center
09:27PM 33.6636 -111.3900 76° East 452 520 24,500 2,120 Climbing Albuquerque Center
09:29PM 33.7481 -111.0992 71° East 470 541 28,700 1,891 Climbing Albuquerque Center
09:30PM 33.8003 -110.9525 67° East 478 550 30,300 1,463 Climbing Albuquerque Center
09:31PM 33.8536 -110.8014 67° East 488 562 31,700 1,525 Climbing Albuquerque Center
09:32PM 33.9069 -110.6469 67° East 497 572 33,400 1,610 Climbing Albuquerque Center
09:33PM 33.9733 -110.4608 67° East 503 579 35,000 1,415 Climbing Albuquerque Center
09:34PM 34.0303 -110.2986 67° East 510 587 36,300 984 Climbing Albuquerque Center
09:35PM 34.0853 -110.1400 67° East 515 593 37,000 927 Climbing Albuquerque Center
09:36PM 34.1456 -109.9661 67° East 518 596 38,200 976 Climbing Albuquerque Center
09:37PM 34.1975 -109.8128 68° East 518 596 39,000 393 Climbing Albuquerque Center
09:38PM 34.2497 -109.6597 68° East 516 594 39,000  Level Albuquerque Center
09:39PM 34.3097 -109.4806 68° East 517 595 39,000  Level Albuquerque Center
09:40PM 34.3614 -109.3286 68° East 514 592 39,000 -344 Level Albuquerque Center
09:41PM 34.4217 -109.1500 68° East 514 592 38,300 -732 Descending Albuquerque Center
09:42PM 34.4450 -108.9875 80° East 513 590 37,500 -634 Descending Albuquerque Center
09:43PM 34.4650 -108.8250 81° East 511 588 37,000 -344 Descending Albuquerque Center
09:44PM 34.4883 -108.6406 81° East 505 581 36,800 -1,525 Descending Albuquerque Center
09:45PM 34.5067 -108.4889 82° East 492 566 33,900 -3,171 Descending Albuquerque Center
09:46PM 34.5372 -108.3222 77° East 492 566 30,300 -3,512 Descending Albuquerque Center
09:47PM 34.5653 -108.1525 79° East 508 585 26,700 -3,197 Descending Albuquerque Center
09:48PM 34.5942 -107.9814 78° East 516 594 23,800 -2,000 Descending Albuquerque Center
09:49PM 34.6219 -107.8231 78° East 489 563 22,600 -1,512 Descending Albuquerque Center
09:50PM 34.6747 -107.6858 65° Northeast 460 529 20,700 -2,147 Descending Albuquerque Center
09:51PM 34.7161 -107.5928 62° Northeast 439 505 19,200 -1,935 Descending Albuquerque Center
09:51PM 34.7289 -107.5597 65° Northeast 430 495 18,700 -1,750 Descending Albuquerque Center
09:52PM 34.7575 -107.4975 61° Northeast 411 473 17,800 -2,164 Descending Albuquerque Center
09:52PM 34.7906 -107.4181 63° Northeast 403 464 16,500 -2,597 Descending Albuquerque Center
09:53PM 34.8069 -107.3614 71° East 388 447 14,900 -3,639 Descending Albuquerque Center
09:53PM 34.8222 -107.2889 76° East 403 464 12,800 -2,909 Descending Albuquerque Center
09:54PM 34.8381 -107.2167 75° East 415 478 11,700 -1,452 Descending Albuquerque Center
09:55PM 34.8506 -107.1575 76° East 407 468 11,300 -980 Descending Albuquerque Center
09:55PM 34.8608 -107.1128 74° East 373 429 10,900 -1,082 Descending Albuquerque Center
09:56PM 34.8764 -107.0444 74° East 377 434 10,200 -900 Descending Albuquerque Center
09:56PM 34.8850 -107.0058 75° East 322 371 10,000 -590 Descending Albuquerque Center
09:57PM 34.8975 -106.9456 76° East 335 386 9,600 -885 Descending Albuquerque Center
09:57PM 34.9069 -106.9097 72° East 278 320 9,100 -1,742 Descending Albuquerque Center
09:58PM 34.9178 -106.8561 76° East 301 346 7,800 -1,672 Descending Albuquerque Center
09:58PM 34.9258 -106.8219 74° East 267 307 7,400 -492 Descending Albuquerque Center
09:59PM 34.9344 -106.7781 77° East 260 299 7,300 -455 Descending Albuquerque Center
09:59PM 34.9439 -106.7422 72° East 196 226 6,900 -871 Descending Albuquerque Center
10:00PM 34.9589 -106.7064 63° Northeast 218 251 6,400 -492 Descending Albuquerque Center
10:00PM 34.9714 -106.6911 45° Northeast 167 192 6,400 -400 Level Albuquerque Center
10:01PM 34.9981 -106.6611 43° Northeast 146 168 5,900 -647 Descending Albuquerque Center
10:02PM 35.0192 -106.6333 47° Northeast 160 184 5,300 -766 Descending Albuquerque Center
10:04PM 35.0333 -106.6000 90° East  Level FlightAware Approximate